MST,Max TemperatureF,Mean TemperatureF,Min TemperatureF,Max Dew PointF,MeanDew PointF,Min DewpointF,Max Humidity, Mean Humidity, Min Humidity, Max Sea Level PressureIn, Mean Sea Level PressureIn, Min Sea Level PressureIn, Max VisibilityMiles, Mean VisibilityMiles, Min VisibilityMiles, Max Wind SpeedMPH, Mean Wind SpeedMPH, Max Gust SpeedMPH,PrecipitationIn, CloudCover, Events, WindDirDegrees
2013-2-1,30,21,11,25,18,8,100,88,75,30.40,30.20,30.05,10,5,0,10,2,20,T,7,Fog-Snow,177
2013-2-2,24,13,2,17,10,-1,100,90,80,30.55,30.45,30.25,10,5,0,8,3,12,0.00,3,Fog,201
2013-2-3,20,10,-1,13,3,-3,100,87,73,30.45,30.25,30.07,10,5,0,8,2,9,0.00,3,Fog,311
2013-2-4,30,15,0,19,11,-2,95,79,63,30.19,30.10,30.04,10,9,7,9,2,12,0.00,4,,261
2013-2-5,33,18,2,22,11,-1,95,79,63,30.17,30.06,29.96,10,9,7,14,3,21,0.00,1,,239
2013-2-6,34,20,5,23,13,4,92,78,63,30.26,30.09,29.90,10,9,5,10,2,13,0.00,1,,266
2013-2-7,22,12,1,15,6,-2,100,89,77,30.33,30.19,30.11,10,5,0,8,2,8,0.00,2,Fog,329
2013-2-8,31,18,5,19,12,2,100,82,63,30.12,30.04,29.92,10,9,6,9,2,10,0.00,2,,317
2013-2-9,34,25,16,23,18,14,92,78,63,29.96,29.90,29.84,10,9,4,9,2,9,T,5,,248
2013-2-10,28,18,7,22,15,6,100,78,55,30.27,30.07,29.88,10,10,9,39,18,47,T,2,,329
2013-2-11,23,8,-8,11,3,-11,91,77,62,30.33,30.25,30.08,10,9,2,7,3,8,0.00,1,,110
2013-2-12,28,13,-3,14,5,-6,95,73,50,30.34,30.26,30.17,10,10,10,9,3,12,0.00,2,,132
2013-2-13,38,24,10,30,18,7,92,70,48,30.15,30.10,29.97,10,10,8,12,5,15,T,6,Snow,162
2013-2-14,33,28,22,32,20,13,96,76,55,30.43,30.32,30.13,20,7,1,33,11,40,0.02,7,Snow,325
2013-2-15,30,19,8,23,18,7,100,88,75,30.53,30.38,30.30,10,5,1,12,4,15,0.10,6,Snow,134
2013-2-16,34,17,0,22,6,-4,100,79,57,30.42,30.25,30.00,10,8,1,8,2,9,0.00,2,,86
2013-2-17,39,22,5,28,17,3,92,70,48,30.00,29.87,29.68,10,9,2,26,10,32,T,3,Snow,324
2013-2-18,34,25,15,22,18,11,91,74,56,30.18,30.11,30.01,10,8,1,16,5,18,T,4,Snow,153
2013-2-19,30,15,0,18,8,-3,95,75,55,30.14,29.98,29.86,10,10,10,8,2,10,0.00,0,,297
2013-2-20,30,18,6,19,11,3,92,75,58,29.97,29.90,29.85,10,10,9,12,2,,0.00,0,,173
2013-2-21,28,16,4,19,10,3,92,78,63,30.11,30.03,29.84,10,8,5,7,2,15,0.00,4,,139
2013-2-22,33,17,0,19,5,-2,95,69,43,30.19,30.01,29.90,10,6,0,14,4,16,0.00,3,Fog,90
2013-2-23,32,22,11,27,20,7,92,75,58,29.97,29.77,29.64,10,6,1,44,11,54,T,7,Snow,328
2013-2-24,35,27,18,20,18,11,77,62,47,30.20,30.14,29.99,10,10,10,32,15,39,0.00,1,,305
2013-2-25,33,20,7,26,14,4,84,66,47,30.20,30.06,29.87,10,9,2,13,4,26,T,2,Snow,147
2013-2-26,38,29,19,27,20,15,92,66,40,30.32,30.05,29.86,10,8,0,22,10,29,0.02,4,Fog-Snow,310
2013-2-27,34,20,6,18,13,5,92,68,43,30.43,30.38,30.34,10,10,10,12,4,23,0.00,3,,128
2013-2-28,36,24,12,21,14,9,88,70,51,30.45,30.38,30.33,10,10,10,10,2,13,0.00,3,,123